CAPE
1174 329 93 21 15 0 1 1 0 0 0 0 0 0 0 0 0 0 0 0 0 0 0 0 0 0 0 0 0 0 0 0 0 2 1 36 238 268 282 320 293 294 304
525 253 86 3 3 0 0 0 0 0 0 0 0 0 0 0 0 0 0 0 0 0 0 0 0 0 0 0 0 0 0 0 0 0 2 6 40 180 260 275 252 286 302
73 165 67 0 0 0 0 0 0 0 0 0 0 0 0 0 0 0 0 0 0 0 0 0 0 0 0 0 0 0 0 0 0 0 0 1 2 6 75 199 206 263 255
0 0 0 0 0 0 0 0 0 0 0 0 0 0 0 0 0 0 0 1 1 0 0 0 0 0 0 0 0 0 0 1 3 1 1 6 0 2 5 47 146 196 234
0 0 0 0 0 0 0 0 0 0 0 0 0 0 0 0 0 0 0 3 7 4 8 0 20 4 0 0 0 0 0 10 11 14 14 9 10 5 2 4 19 91 221
0 0 0 0 0 0 0 0 0 0 0 0 0 0 0 0 0 1 10 12 7 13 9 18 17 11 44 0 0 0 11 14 15 29 24 22 11 8 9 3 5 11 81
0 0 0 0 0 0 0 0 0 0 0 0 0 0 0 0 4 9 7 7 5 6 9 11 17 17 12 62 22 21 8 12 32 27 24 26 13 6 6 10 4 4 5
0 0 0 0 0 0 0 0 0 0 0 1 0 0 0 0 0 0 0 3 15 13 14 10 14 22 20 28 40 31 60 22 13 14 25 29 27 16 8 9 11 8 8
0 0 0 0 0 0 0 0 4 3 4 5 9 5 4 4 5 1 1 2 28 9 21 14 8 7 12 6 34 36 16 0 0 11 38 34 37 33 23 14 16 25 18
0 0 0 0 0 0 2 8 10 17 25 19 15 12 18 19 20 7 7 15 19 28 63 18 16 9 4 17 36 53 3 0 0 0 4 38 43 36 37 29 39 31 30
2 0 0 7 9 13 19 28 37 39 38 29 28 19 20 17 16 30 34 27 23 10 12 27 22 32 16 13 24 36 25 5 3 0 0 3 27 48 43 31 31 54 35
0 0 4 9 15 20 34 47 49 27 56 58 60 37 34 34 34 46 42 32 36 6 25 40 66 60 59 59 42 76 70 66 25 7 1 5 5 4 18 31 14 16 33
0 0 0 1 3 5 10 30 47 56 88 69 66 54 25 47 56 35 40 38 55 13 34 49 69 74 37 92 64 81 19 24 63 67 20 22 3 0 0 0 4 5 14
0 0 0 0 1 7 14 42 78 108 101 67 82 53 54 56 52 49 35 58 44 31 28 25 57 82 85 79 75 78 14 44 33 53 14 10 13 0 0 0 0 0 0
0 0 0 0 0 0 3 25 76 93 100 99 80 73 72 56 66 46 49 52 77 69 28 39 59 52 88 77 76 73 69 41 54 48 17 1 0 5 0 0 0 0 0
0 0 0 0 0 0 6 22 40 68 62 102 72 46 43 43 39 68 57 75 75 62 61 42 44 58 55 22 36 63 59 68 44 44 46 22 12 6 0 0 0 0 0
0 0 0 0 0 6 16 16 42 62 49 43 34 45 42 40 52 73 78 73 78 73 75 47 35 36 33 36 42 44 50 65 56 64 45 69 67 34 3 0 0 0 0
0 0 0 3 10 13 11 30 39 15 29 26 26 25 20 30 27 29 28 18 31 26 56 35 12 32 29 25 54 47 49 22 53 46 69 38 26 26 5 0 0 0 0
0 0 5 11 14 13 18 21 16 12 27 25 31 37 25 18 12 7 6 7 7 8 27 34 28 31 34 41 34 38 46 44 33 49 68 62 38 32 41 0 0 0 0
0 3 9 15 17 16 12 11 15 23 30 33 26 20 11 6 3 0 0 2 4 8 11 19 24 26 39 45 38 57 50 81 59 31 34 36 48 33 23 12 0 0 0
1 5 13 16 18 18 10 3 16 28 16 14 15 7 3 0 0 0 0 4 8 10 19 25 33 53 58 56 65 38 50 54 66 85 85 74 71 96 78 42 2 4 0
2 7 22 22 21 16 0 0 0 0 1 4 5 1 1 3 3 0 0 1 4 14 28 62 39 51 35 35 61 63 85 78 59 97 67 77 61 91 70 42 0 0 0
6 14 28 24 27 29 0 0 0 0 0 4 4 3 2 1 2 1 0 3 8 23 7 28 40 53 48 49 49 34 38 54 74 60 48 54 64 76 39 24 7 0 0
12 11 24 26 32 6 0 0 0 0 1 7 7 6 5 5 0 0 0 5 3 4 7 5 17 21 20 19 28 32 42 46 40 45 58 66 95 78 84 61 35 13 0
13 12 22 33 24 2 0 0 0 0 3 5 6 6 2 1 0 0 0 3 2 3 7 15 1 9 18 17 23 58 68 72 72 34 45 40 95 98 102 96 86 35 1
13 13 11 17 4 9 0 0 0 0 5 8 6 5 0 0 0 0 2 5 7 6 0 1 6 12 15 26 16 6 53 82 56 50 35 28 57 44 47 102 80 81 37
CIN
-0 -0 -19 -10 -22 -0 -0 -0 -0 -0 -0 -0 -0 -0 -0 -0 -0 -0 -0 -0 -0 -0 -0 -0 -0 -0 -0 -0 -0 -0 -0 -0 -0 -0 -0 -1 -0 -0 -1 -1 -1 -2 -7
-29 -0 -9 -17 -9 -0 -0 -0 -0 -0 -0 -0 -0 -0 -0 -0 -0 -0 -0 -0 -0 -0 -0 -0 -0 -0 -0 -0 -0 -0 -0 -0 -0 -0 -0 -0 -1 -0 -0 -1 -3 -0 -2
-68 -12 -17 -0 -0 -0 -0 -0 -0 -0 -0 -0 -0 -0 -0 -0 -0 -0 -0 -0 -0 -0 -0 -0 -0 -0 -0 -0 -0 -0 -0 -0 -0 -0 -0 -0 -0 -0 -0 -0 -2 -2 -0
-0 -0 -0 -0 -0 -0 -0 -0 -0 -0 -0 -0 -0 -0 -0 -0 -0 -0 -0 -0 -0 -0 -0 -8 -0 -0 -0 -0 -0 -0 -0 -0 -0 -0 -0 -0 -0 -0 -0 -1 -0 -0 -3
-0 -0 -0 -0 -0 -0 -0 -0 -0 -0 -0 -0 -0 -0 -0 -0 -0 -0 -0 -0 -0 -0 -0 -0 -8 -2 -0 -0 -0 -0 -0 -0 -0 -0 -0 -0 -0 -0 -0 -0 -3 -0 -0
-0 -0 -0 -0 -0 -0 -0 -0 -0 -0 -0 -0 -0 -0 -0 -0 -0 -0 -0 -0 -0 -1 -0 -0 -0 -0 -8 -0 -0 -0 -0 -0 -0 -0 -0 -0 -0 -0 -0 -0 -0 -1 -0
-0 -0 -0 -0 -0 -0 -0 -0 -0 -0 -0 -0 -0 -0 -0 -0 -0 -1 -0 -0 -1 -0 -0 -0 -0 -0 -0 -0 -0 -0 -0 -0 -0 -0 -0 -0 -0 -0 -0 -0 -0 -0 -0
-0 -0 -0 -0 -0 -0 -0 -0 -0 -0 -0 -0 -0 -0 -0 -0 -0 -0 -0 -0 -1 -0 -0 -0 -0 -0 -0 -0 -0 -1 -3 -2 -0 -0 -0 -0 -0 -0 -0 -0 -0 -0 -0
-0 -0 -0 -0 -0 -0 -0 -0 -0 -0 -0 -0 -0 -0 -0 -0 -0 -0 -0 -0 -0 -0 -0 -1 -0 -0 -0 -0 -0 -2 -31 -0 -0 -0 -0 -0 -0 -0 -0 -0 -0 -0 -0
-0 -0 -0 -0 -0 -0 -0 -0 -0 -0 -0 -0 -0 -0 -0 -0 -0 -0 -0 -0 -0 -0 -0 -0 -0 -1 -0 -0 -1 -14 -39 -0 -0 -0 -0 -0 -0 -0 -0 -0 -0 -0 -0
-1 -0 -0 -0 -0 -0 -0 -0 -0 -0 -0 -0 -0 -0 -0 -0 -0 -0 -0 -0 -0 -0 -0 -0 -1 -0 -0 -1 -0 -0 -26 -35 -27 -0 -0 -0 -0 -0 -0 -0 -0 -0 -0
-0 -0 -0 -0 -0 -0 -0 -0 -0 -0 -0 -0 -0 -0 -0 -0 -0 -0 -0 -0 -0 -0 -0 -0 -0 -0 -0 -0 -0 -6 -8 -14 -9 -5 -1 -1 -0 -0 -0 -0 -0 -0 -0
-0 -0 -0 -0 -0 -0 -0 -0 -3 -5 -0 -0 -0 -0 -0 -0 -0 -0 -0 -0 -0 -0 -0 -0 -0 -0 -0 -0 -0 -11 -16 -19 -7 -3 -1 -0 -0 -0 -0 -0 -0 -0 -0
-0 -0 -0 -0 -0 -0 -0 -0 -1 -0 -0 -0 -0 -0 -0 -1 -0 -0 -0 -0 -0 -0 -0 -0 -0 -0 -0 -0 -0 -8 -0 -9 -8 -4 -7 -2 -0 -0 -0 -0 -0 -0 -0
-0 -0 -0 -0 -0 -0 -0 -0 -0 -0 -0 -0 -0 -0 -0 -0 -0 -0 -0 -0 -0 -0 -0 -0 -0 -0 -0 -0 -0 -0 -0 -1 -3 -3 -7 -10 -0 -0 -0 -0 -0 -0 -0
-0 -0 -0 -0 -0 -0 -0 -0 -0 -1 -0 -0 -0 -0 -0 -0 -0 -0 -0 -0 -0 -0 -0 -0 -0 -0 -0 -0 -0 -0 -0 -0 -1 -8 -3 -10 -10 -3 -0 -0 -0 -0 -0
-0 -0 -0 -0 -0 -0 -0 -0 -0 -0 -0 -0 -0 -0 -0 -0 -0 -0 -0 -0 -0 -0 -0 -0 -0 -0 -0 -0 -0 -0 -0 -0 -0 -0 -9 -4 -7 -14 -22 -0 -0 -0 -0
-0 -0 -0 -0 -0 -0 -0 -1 -0 -0 -0 -0 -0 -0 -0 -0 -0 -0 -0 -0 -0 -0 -0 -0 -0 -0 -0 -0 -0 -0 -0 -0 -0 -0 -3 -3 -10 -3 -16 -0 -0 -0 -0
-0 -0 -0 -0 -0 -0 -0 -0 -0 -0 -0 -0 -0 -0 -0 -0 -0 -0 -0 -0 -0 -0 -0 -0 -0 -0 -0 -0 -0 -0 -0 -0 -0 -0 -1 -3 -15 -17 -13 -3 -0 -0 -0
-0 -0 -0 -0 -0 -0 -0 -0 -0 -0 -0 -0 -0 -0 -0 -0 -0 -0 -0 -0 -0 -0 -0 -0 -0 -0 -0 -0 -0 -0 -0 -0 -0 -0 -0 -2 -8 -1 -7 -35 -0 -0 -0
-0 -0 -0 -0 -0 -0 -0 -0 -0 -0 -0 -0 -0 -0 -0 -0 -0 -0 -0 -0 -0 -0 -0 -0 -0 -0 -0 -0 -0 -0 -0 -0 -0 -0 -0 -0 -0 -0 -0 -8 -28 -4 -0
-0 -0 -0 -0 -0 -0 -0 -0 -0 -0 -0 -0 -0 -0 -0 -1 -2 -0 -0 -0 -0 -0 -0 -0 -0 -0 -0 -0 -0 -0 -0 -0 -0 -0 -0 -0 -0 -0 -0 -0 -1 -0 -0
-0 -0 -0 -0 -0 -1 -0 -0 -0 -0 -0 -0 -0 -0 -0 -0 -0 -0 -1 -1 -0 -0 -8 -0 -0 -0 -0 -0 -0 -0 -0 -0 -0 -0 -0 -0 -1 -0 -0 -0 -18 -0 -0
-0 -0 -0 -0 -0 -1 -0 -0 -0 -0 -0 -0 -0 -0 -0 -0 -1 -0 -0 -0 -0 -0 -0 -0 -0 -0 -0 -0 -0 -0 -0 -0 -0 -0 -0 -0 -0 -0 -0 -0 -5 -14 -0
-0 -0 -0 -0 -0 -4 -0 -0 -0 -0 -0 -0 -0 -0 -0 -0 -0 -0 -0 -0 -0 -0 -1 -1 -1 -0 -0 -0 -0 -0 -0 -0 -0 -0 -0 -0 -0 -0 -0 -0 -0 -3 -19
-0 -0 -0 -0 -0 -0 -0 -0 -0 -0 -0 -0 -0 -0 -0 -0 -0 -0 -0 -0 -0 -0 -0 -0 -0 -0 -0 -0 -6 -1 -0 -0 -0 -0 -0 -0 -0 -0 -0 -0 -0 -1 -10
Wind_Speed
4 4 2 4 4 3 4 6 8 8 8 9 10 11 11 12 12 8 8 7 8 9 7 9 11 12 13 14 15 15 16 15 15 15 14 13 13 11 9 9 9 9 8
3 3 2 3 3 8 7 6 5 7 8 10 11 13 13 13 12 10 8 7 8 9 6 5 9 12 13 15 15 16 17 17 16 15 15 16 14 13 13 11 10 10 10
3 4 5 7 6 2 5 5 7 8 9 10 13 11 12 13 11 12 8 9 1 9 5 7 8 12 14 14 16 16 17 17 18 18 16 14 15 16 16 14 12 12 11
6 4 4 1 1 3 4 6 7 8 9 10 10 10 11 12 12 12 10 5 7 9 3 6 11 13 14 14 16 17 17 16 17 19 19 16 16 16 16 17 16 14 13
4 4 3 2 3 3 4 5 7 8 9 11 11 11 12 11 11 11 13 6 8 7 6 14 10 10 5 14 16 19 16 16 18 18 18 18 19 18 18 18 19 18 15
4 3 3 2 5 4 5 6 8 9 9 10 11 11 12 11 11 8 9 6 7 10 9 11 11 11 11 14 16 18 16 19 17 16 19 20 21 22 20 20 20 20 19
5 1 1 2 4 4 4 7 8 11 9 10 11 11 10 14 12 7 9 6 10 11 11 11 9 10 10 18 15 13 18 17 18 20 19 19 19 20 21 20 21 21 21
3 2 4 4 4 6 8 7 9 8 9 9 11 11 11 11 11 11 10 10 10 10 12 13 13 14 11 11 11 15 17 14 16 18 19 18 18 19 20 21 21 21 22
2 1 3 5 6 7 7 8 8 10 9 10 11 11 12 11 12 11 13 11 12 10 11 12 14 13 13 13 14 11 8 11 15 17 19 18 18 18 19 22 21 22 22
2 4 5 6 7 7 8 8 8 8 11 11 10 9 11 12 12 13 10 11 11 12 12 11 11 11 13 12 13 9 3 1 7 14 18 20 18 18 18 20 21 21 22
6 6 5 6 8 8 9 10 9 9 10 10 10 10 10 9 11 11 12 11 12 11 11 10 11 11 13 12 11 10 4 3 5 11 17 19 19 19 18 18 21 20 22
5 6 8 9 9 11 11 10 9 12 10 9 10 9 9 9 9 9 11 13 14 12 12 11 11 10 10 11 13 11 14 5 7 13 17 19 19 18 18 18 19 21 21
6 8 10 11 9 11 12 10 7 10 13 9 11 8 7 6 7 9 10 11 12 13 12 11 11 11 11 10 11 12 17 15 16 18 17 16 18 20 19 19 19 18 21
6 8 8 10 11 12 12 12 7 7 10 8 12 9 8 6 7 7 8 8 13 13 13 17 10 11 10 10 12 14 13 16 17 17 15 18 18 19 20 19 19 18 19
5 7 9 11 13 14 14 14 9 7 10 11 10 9 8 8 8 8 8 10 11 14 14 13 13 14 10 11 12 13 14 19 19 20 20 21 22 20 18 19 19 19 19
6 9 10 11 12 13 13 13 10 10 11 9 7 8 8 7 8 8 11 11 11 13 16 13 12 14 14 13 15 14 15 20 20 21 21 24 22 21 15 14 16 19 18
8 10 10 11 11 12 11 9 11 12 12 8 8 8 10 10 9 10 10 10 11 11 14 12 12 14 16 16 14 14 14 14 13 20 21 20 22 14 12 12 14 17 18
9 10 11 11 12 11 11 12 11 9 7 9 9 10 11 10 13 14 11 14 13 14 13 18 15 12 15 16 15 16 13 13 13 19 21 8 5 11 13 13 13 16 17
10 10 11 11 10 11 8 9 7 5 7 7 8 10 12 13 13 11 12 12 12 12 12 10 12 10 11 12 14 14 14 13 11 20 18 16 20 22 18 14 15 15 17
10 10 10 9 7 10 6 6 6 6 6 9 10 11 12 11 11 12 12 13 12 12 12 10 11 12 12 13 12 12 11 10 11 12 14 14 10 15 19 18 18 17 17
9 11 10 7 7 6 3 6 8 8 10 12 10 10 10 7 6 8 7 12 13 11 10 10 11 11 10 11 13 11 12 11 11 10 10 11 9 9 10 16 20 14 3
10 11 8 7 7 5 10 7 6 9 11 11 10 10 10 10 6 8 15 9 12 13 15 12 12 12 15 13 12 11 11 11 11 8 7 9 8 9 8 7 8 6 1
10 10 9 6 8 4 8 4 3 8 11 8 9 10 10 8 7 11 13 14 15 18 15 14 15 14 14 14 14 14 14 12 12 10 10 10 7 7 7 7 7 2 2
10 10 7 7 8 2 11 6 4 10 9 9 9 10 10 10 9 10 12 14 15 15 14 10 12 13 15 16 15 14 15 15 12 11 11 10 9 8 6 7 10 7 6
10 9 8 7 7 4 12 8 5 8 8 9 9 9 7 9 9 13 12 13 15 14 13 15 17 20 20 22 20 11 11 10 10 9 8 6 8 8 8 8 7 13 10
10 8 8 7 1 2 10 9 5 6 7 7 8 9 4 4 6 11 11 12 12 13 15 15 14 14 14 14 12 11 10 11 10 9 8 6 7 7 6 7 7 7 7
Wind_Direction
21 309 6 313 345 326 336 344 2 350 335 334 332 330 330 320 322 316 322 103 91 80 44 22 17 13 10 8 3 357 353 352 349 345 340 330 326 296 286 282 283 283 279
293 293 279 316 324 18 11 348 347 319 331 328 324 327 326 317 311 314 323 319 139 122 111 62 21 6 359 356 354 349 344 340 338 337 337 339 337 330 292 278 276 275 276
23 330 37 42 12 1 286 331 329 335 328 327 323 324 318 321 317 318 310 303 275 148 118 76 23 1 346 348 348 344 338 333 330 326 326 322 335 332 335 300 272 270 269
47 51 70 146 302 287 349 338 337 335 326 326 319 320 318 313 314 310 286 310 320 320 176 115 20 347 335 340 343 339 335 334 330 324 320 320 319 323 323 322 315 271 262
110 153 151 142 295 331 338 342 340 329 327 322 319 324 318 307 312 304 303 312 302 288 323 309 360 322 325 342 337 330 328 336 329 330 321 321 319 317 313 311 311 312 268
160 188 123 23 317 330 336 350 329 331 325 320 321 320 307 318 303 303 298 286 319 318 321 331 323 313 338 329 327 318 334 327 322 333 330 327 321 317 311 305 306 303 303
159 144 359 356 320 318 326 326 330 329 329 328 323 312 318 286 301 272 272 335 317 317 326 330 317 330 316 324 306 337 323 322 338 331 324 319 316 312 309 304 299 302 298
119 91 352 328 353 327 326 328 330 324 321 334 318 315 314 311 297 357 337 314 305 328 317 323 322 318 323 313 328 338 21 353 337 328 317 316 318 317 312 306 302 297 299
147 343 316 328 320 313 321 326 316 312 322 314 316 309 306 305 318 308 308 312 323 307 308 299 314 319 326 315 308 335 21 11 350 330 318 314 315 319 318 308 304 301 297
255 302 315 315 314 312 307 300 311 322 300 315 306 300 306 306 306 305 307 311 312 306 320 315 314 316 316 295 328 343 80 10 339 334 328 317 316 316 323 314 311 301 302
226 255 286 305 303 298 297 298 293 286 297 307 303 311 303 310 304 304 307 311 304 310 311 310 316 305 295 303 305 306 191 236 297 318 315 317 317 314 319 328 320 313 307
309 311 315 315 308 295 287 293 304 299 308 301 287 304 298 304 305 309 302 300 309 308 315 309 301 303 304 301 294 296 310 318 314 301 299 300 305 311 315 319 326 319 309
321 327 336 315 309 309 303 297 282 279 285 297 286 277 281 292 295 294 301 306 305 304 301 310 308 307 305 313 309 336 324 307 293 288 294 287 295 299 303 310 316 322 319
325 334 311 309 304 299 296 292 279 260 289 299 287 281 284 277 291 298 302 303 296 296 299 301 304 301 304 304 307 302 302 306 309 305 311 303 293 291 293 295 300 307 314
316 313 314 310 309 307 303 300 286 298 283 294 285 271 277 277 294 302 294 283 289 296 293 298 301 300 308 316 311 315 303 295 297 296 290 285 282 277 280 286 290 296 304
312 313 311 310 311 307 299 292 306 311 298 293 274 276 289 292 285 286 283 287 291 291 292 297 299 314 319 311 307 310 302 302 288 275 275 266 263 260 261 280 290 293 296
308 310 307 308 303 298 302 325 305 298 296 291 301 295 292 299 282 284 295 301 297 296 297 305 307 311 311 309 305 304 298 292 284 280 270 273 255 234 252 266 283 295 297
307 307 308 299 307 327 323 303 303 311 322 316 311 305 306 295 309 311 307 306 307 305 300 304 309 306 301 303 300 297 291 297 298 298 295 290 236 250 251 251 263 279 290
305 305 300 307 321 316 302 303 321 317 297 303 303 295 301 316 311 308 314 313 306 303 310 310 301 299 299 298 299 294 289 284 289 283 282 280 230 235 243 250 253 263 274
302 298 299 305 308 297 315 288 301 304 316 296 299 321 312 305 311 332 311 311 309 315 311 301 300 301 300 301 296 295 303 295 297 299 292 279 279 244 248 244 243 244 254
290 290 295 321 296 291 289 356 326 308 318 317 315 302 305 344 302 292 293 307 312 308 303 297 294 296 302 306 299 297 294 303 300 285 303 293 297 287 246 237 257 253 247
290 294 296 293 300 287 97 65 339 314 312 309 307 312 311 302 295 291 272 288 293 296 296 293 300 297 298 300 310 308 303 295 296 304 320 303 302 305 283 294 99 141 170
295 287 285 282 269 260 128 121 316 301 306 310 308 311 312 310 300 338 332 314 297 280 265 272 285 294 304 308 313 310 308 302 296 301 295 290 280 268 291 281 154 207 281
294 287 280 272 264 154 152 148 271 289 302 301 311 306 305 327 10 349 325 304 308 306 305 315 312 310 305 304 299 296 300 296 291 285 284 294 294 276 275 271 287 250 246
292 287 279 253 261 182 160 159 256 299 298 309 306 302 324 309 11 348 316 314 308 307 309 324 317 303 291 285 277 283 281 289 290 288 286 278 282 274 265 262 259 246 218
277 279 289 293 334 245 169 171 225 292 299 294 301 309 141 24 348 326 313 311 305 310 328 315 307 305 302 302 290 272 280 275 277 286 282 293 289 292 272 241 249 239 206